Wind_Speed
4 5 10 13 15 17 19 18 18 18 17 16 16 15 14 14 11 9 4 1 5 8 7 8 7 6 5 4 3 2 2 1 1 2 2 2 3 4 5 6 7 8 9 9
6 6 10 13 14 15 17 17 18 18 18 16 16 14 12 12 11 10 6 3 5 7 7 8 7 6 5 4 3 2 2 1 0 1 2 2 3 4 6 7 8 9 10 11
7 8 10 12 12 15 15 16 18 19 17 15 14 13 11 10 10 10 9 8 7 8 9 10 8 7 6 5 4 3 2 1 0 1 2 3 4 5 6 8 9 10 11 11
7 8 9 11 12 13 14 15 16 17 16 15 13 10 11 10 9 11 11 10 9 9 9 9 8 8 6 4 3 2 1 1 1 2 3 4 5 6 7 8 10 11 12 13
8 9 10 11 12 11 13 14 14 14 14 13 10 9 10 10 9 11 11 11 10 9 8 8 8 6 5 3 3 2 1 1 2 3 4 4 6 7 8 9 11 12 13 14
9 10 11 10 9 10 12 13 12 12 12 10 7 7 8 8 8 8 9 9 9 9 8 7 6 5 3 2 2 2 2 2 3 3 4 5 7 8 9 11 12 12 13 14
9 10 10 10 8 9 12 12 12 11 10 9 5 5 5 6 6 6 6 6 6 6 5 5 4 3 2 2 3 3 3 3 4 4 5 7 8 9 11 12 12 13 14 15
13 11 11 12 10 10 11 11 11 11 11 11 7 4 2 4 4 4 4 3 3 3 2 2 1 2 2 3 4 4 4 4 5 5 7 8 9 11 12 13 13 14 14 15
15 12 11 12 12 13 13 12 12 12 12 11 7 4 2 2 2 2 2 2 2 2 2 2 2 2 3 4 4 5 5 6 6 7 9 10 11 12 13 14 14 15 15 16
15 12 12 14 14 15 17 15 12 11 13 12 9 6 5 4 3 1 1 1 1 1 2 3 4 4 5 5 6 6 7 7 8 9 11 12 13 14 15 16 17 17 18 19
13 12 13 16 17 17 18 17 13 12 13 13 12 10 9 8 7 5 3 2 1 1 2 4 4 5 6 6 7 7 8 9 10 11 13 14 15 16 18 18 19 20 21 22
11 13 15 16 16 16 16 16 15 13 12 13 14 13 11 11 9 8 6 5 4 4 4 4 4 5 6 7 8 9 10 11 13 14 16 17 18 19 20 21 21 22 23 24
11 13 15 15 15 16 15 15 15 15 13 12 13 14 12 12 11 10 10 9 8 8 8 7 7 7 7 8 10 11 13 14 15 17 19 20 21 22 22 23 23 24 24 25
14 16 16 16 14 13 13 13 13 13 13 12 13 15 15 14 14 14 12 12 12 11 10 10 10 10 10 11 12 13 15 17 18 20 21 22 23 24 25 25 25 26 27 28
18 17 16 15 15 14 14 13 12 13 14 15 14 15 15 15 16 14 13 14 14 13 11 11 11 12 13 14 15 16 17 19 20 22 24 25 26 27 27 28 28 28 29 30
21 19 17 14 15 17 15 15 15 16 16 17 17 18 16 16 16 15 15 14 15 15 13 12 12 13 15 16 17 19 20 21 23 24 26 27 28 29 30 30 30 31 31 32
21 21 20 17 16 17 18 18 19 20 21 22 22 21 19 16 17 17 17 17 16 16 15 14 14 16 17 19 20 21 23 24 26 27 28 30 31 31 32 32 32 33 34 35
22 23 22 20 18 18 17 20 22 22 22 23 26 26 22 20 18 17 17 17 17 17 18 18 19 20 21 22 24 25 26 27 28 30 31 32 33 33 34 34 35 35 36 37
24 24 23 21 20 19 19 21 22 22 22 22 21 22 21 20 19 17 16 18 18 21 23 24 25 25 26 27 28 28 29 30 31 33 34 35 35 36 36 37 37 38 39 40
24 25 25 24 24 22 21 21 21 22 21 21 20 21 22 22 20 17 17 20 23 25 26 27 28 29 30 31 31 31 32 32 33 35 36 37 38 38 39 39 40 41 42 43
25 26 26 26 26 25 22 21 21 21 19 19 20 20 20 20 21 20 20 22 25 27 28 30 31 32 32 33 34 34 35 34 35 37 38 39 40 41 41 42 43 44 45 46
24 25 25 26 26 25 24 24 21 17 18 19 18 18 19 20 20 21 23 25 27 29 31 32 33 34 35 35 36 37 37 38 39 39 40 41 43 44 44 46 47 47 48 48
26 26 26 26 25 24 24 24 21 19 20 19 19 20 20 21 21 23 25 27 29 30 32 33 34 36 37 38 38 39 40 41 42 42 43 44 46 47 48 49 50 50 50 50
27 27 27 26 26 26 25 25 23 20 20 22 23 23 23 23 25 26 28 29 30 32 33 34 36 37 38 39 40 41 42 43 44 45 46 47 49 49 50 51 52 53 53 53
28 29 29 29 28 28 28 25 25 24 23 24 25 26 27 28 28 29 30 31 32 33 34 36 37 38 39 40 41 42 43 44 46 47 49 50 51 52 53 54 55 55 56 57
29 29 29 30 29 29 29 27 26 25 25 25 27 29 31 32 32 33 33 34 34 35 36 37 38 39 40 41 42 43 45 46 48 49 51 52 54 55 56 57 58 59 59 59
Wind_Direction
322 352 9 8 5 1 354 348 348 349 353 351 351 354 359 3 2 360 4 181 180 165 171 173 168 159 161 164 170 188 204 223 310 336 337 352 356 354 348 346 346 348 348 345
310 344 357 359 357 349 341 339 342 346 350 347 349 356 5 12 23 30 45 106 148 157 166 166 159 155 150 150 161 162 168 192 286 317 329 345 351 348 348 350 348 347 344 340
315 342 348 346 341 336 334 336 342 348 350 351 353 3 16 30 41 47 62 89 135 145 157 161 156 153 150 148 149 154 165 174 261 321 337 345 347 350 350 346 343 340 336 335
321 333 331 327 322 327 337 343 347 353 356 358 4 28 43 51 57 60 68 82 107 128 139 144 144 146 147 148 155 167 175 207 293 316 334 342 345 344 343 340 339 338 335 332
330 327 325 317 313 321 333 340 344 351 354 0 14 42 52 59 67 69 75 84 95 109 125 135 143 143 144 153 163 186 221 270 298 313 326 338 344 345 344 343 341 339 337 335
326 329 333 331 314 318 326 331 333 334 341 350 16 43 59 72 76 77 79 86 91 97 106 118 127 130 141 170 205 237 260 291 304 314 329 339 344 345 344 343 341 339 339 338
311 326 334 336 327 316 321 322 322 325 333 341 1 25 60 77 79 84 87 90 93 96 103 113 124 138 166 213 242 259 277 294 303 316 329 338 341 342 341 340 339 340 340 339
297 313 321 320 313 308 311 306 307 316 319 326 332 350 32 73 73 79 88 107 116 122 129 137 156 186 215 240 254 262 273 288 302 315 325 331 335 336 335 334 334 334 333 332
281 288 297 297 297 299 302 305 301 299 297 308 324 352 21 27 44 91 108 127 127 142 179 212 245 254 251 256 262 272 280 289 299 309 317 322 324 327 328 327 326 325 322 322
271 275 286 287 288 290 293 298 290 281 282 289 299 309 316 324 338 328 307 210 174 177 205 230 249 258 258 258 263 271 277 285 297 306 310 314 317 319 320 320 319 317 315 314
263 277 284 285 286 287 289 290 286 277 277 281 282 291 300 307 310 310 322 329 322 268 234 224 235 254 263 265 269 274 280 289 298 303 306 308 311 313 315 316 316 315 314 313
267 283 289 289 288 287 286 288 283 271 270 275 278 287 292 299 301 308 312 328 327 315 298 284 279 278 280 283 286 289 294 297 300 301 302 304 306 307 309 311 313 312 312 311
273 283 292 294 288 285 278 276 272 268 265 268 276 285 288 292 292 299 301 312 319 320 315 310 310 303 297 295 296 298 299 298 298 298 299 299 300 302 305 308 310 309 307 306
286 291 294 300 295 281 265 261 262 264 262 261 270 280 285 289 293 293 297 304 310 316 319 316 312 306 302 301 300 300 298 297 295 294 295 296 297 299 302 305 306 306 305 304
284 288 294 300 293 280 264 258 259 263 260 261 267 276 283 289 293 292 293 297 304 311 315 314 307 302 300 299 298 296 295 294 293 292 292 293 295 297 298 300 302 303 303 304
284 285 289 294 287 274 266 257 259 264 264 263 266 271 274 277 285 290 290 292 299 305 308 307 302 299 298 296 295 294 293 292 291 290 290 291 293 294 296 298 299 300 301 303
278 280 281 287 282 276 266 263 260 261 266 268 265 267 267 267 275 279 284 290 296 300 301 300 296 296 295 295 294 294 293 291 290 290 290 290 292 293 294 296 297 298 300 303
277 278 278 282 283 275 270 263 262 266 271 270 265 264 260 261 265 268 277 285 291 297 299 298 295 293 292 293 293 294 293 292 291 291 290 291 291 292 294 296 297 299 300 302
275 276 277 278 280 277 274 270 268 269 279 280 277 266 265 263 266 264 276 286 290 295 296 295 294 292 290 291 292 293 293 292 292 292 291 291 292 293 294 296 298 298 300 301
274 274 275 273 275 276 277 277 273 275 284 290 288 281 274 268 265 277 283 287 291 292 292 292 292 292 292 292 292 292 292 291 291 291 291 292 293 294 295 296 297 297 299 301
273 273 274 275 276 274 277 275 275 278 286 293 293 289 282 282 277 284 288 289 292 292 291 291 291 291 292 292 293 292 291 291 291 291 291 292 292 293 294 294 295 296 297 299
274 273 274 277 279 280 285 280 272 279 292 298 295 294 293 295 294 293 292 292 291 291 291 291 292 292 291 291 291 291 290 291 290 290 290 291 291 292 292 292 293 295 296 297
272 274 278 280 282 286 292 289 277 283 289 292 293 298 300 300 298 296 294 292 291 291 290 290 290 290 289 289 289 289 290 289 290 290 289 289 289 290 291 292 292 293 295 296
274 276 279 283 285 291 295 296 287 285 288 294 299 301 301 301 299 298 296 295 294 292 291 291 290 290 289 289 290 290 290 289 289 289 289 289 289 289 290 291 292 293 294 294
272 276 280 283 286 291 293 291 290 294 294 293 296 299 302 302 302 300 299 296 295 294 293 292 291 291 290 290 290 290 290 289 289 289 289 290 290 289 289 291 291 291 292 292
272 277 280 283 286 289 290 290 292 295 293 294 297 300 301 301 301 299 298 297 296 295 294 293 293 292 292 291 290 290 289 289 289 289 289 289 289 289 289 289 289 290 290 290
Height
5901 5900 5897 5894 5892 5890 5888 5887 5885 5883 5881 5878 5874 5871 5867 5863 5859 5857 5856 5856 5856 5859 5862 5864 5867 5870 5872 5874 5874 5875 5876 5877 5876 5876 5876 5875 5874 5873 5872 5870 5869 5867 5866 5864
5900 5897 5895 5892 5891 5889 5887 5887 5884 5882 5880 5877 5874 5871 5867 5863 5861 5859 5856 5855 5856 5858 5862 5865 5867 5870 5871 5873 5874 5875 5875 5875 5875 5875 5875 5874 5873 5871 5870 5868 5867 5865 5864 5862
5897 5896 5893 5891 5890 5888 5887 5886 5883 5881 5878 5876 5873 5871 5867 5865 5863 5861 5859 5857 5857 5859 5862 5865 5868 5869 5871 5873 5873 5874 5874 5874 5874 5874 5873 5872 5871 5870 5868 5867 5865 5863 5861 5860
5896 5894 5893 5891 5890 5888 5886 5885 5882 5880 5877 5875 5873 5871 5869 5866 5865 5863 5862 5861 5861 5862 5864 5866 5868 5870 5871 5872 5873 5873 5873 5873 5873 5872 5871 5870 5869 5868 5867 5865 5863 5861 5859 5857
5895 5894 5892 5890 5889 5887 5885 5883 5882 5880 5877 5875 5873 5872 5871 5868 5867 5866 5865 5864 5865 5865 5866 5867 5869 5870 5871 5872 5872 5872 5872 5872 5871 5871 5870 5869 5868 5866 5865 5863 5861 5859 5857 5855
5893 5892 5890 5889 5888 5886 5884 5882 5881 5880 5878 5876 5874 5873 5871 5869 5867 5867 5866 5866 5867 5867 5868 5868 5869 5870 5871 5871 5871 5871 5871 5870 5870 5869 5868 5867 5865 5864 5862 5861 5859 5857 5855 5852
5891 5890 5888 5887 5886 5885 5882 5881 5880 5879 5877 5876 5874 5873 5872 5870 5868 5867 5867 5867 5867 5868 5868 5869 5869 5870 5870 5870 5870 5869 5869 5869 5868 5867 5866 5865 5863 5861 5860 5858 5856 5854 5852 5850
5887 5887 5887 5885 5884 5883 5881 5880 5879 5877 5875 5874 5873 5872 5872 5870 5869 5867 5867 5867 5867 5868 5868 5868 5868 5868 5869 5869 5868 5868 5867 5867 5866 5865 5864 5862 5861 5859 5857 5856 5854 5852 5850 5847
5883 5885 5884 5882 5881 5880 5879 5878 5876 5875 5873 5872 5871 5871 5871 5870 5869 5867 5867 5866 5866 5867 5867 5867 5866 5867 5867 5867 5866 5866 5865 5865 5864 5863 5861 5860 5858 5857 5855 5853 5851 5849 5846 5844
5879 5881 5881 5879 5878 5877 5877 5875 5874 5872 5870 5869 5869 5868 5869 5868 5867 5866 5865 5865 5864 5865 5865 5865 5864 5864 5865 5864 5864 5863 5863 5862 5861 5860 5858 5857 5855 5853 5851 5849 5847 5845 5842 5840
5875 5877 5877 5876 5875 5874 5873 5871 5870 5869 5868 5867 5865 5867 5865 5865 5864 5863 5863 5862 5862 5862 5862 5862 5862 5862 5862 5861 5861 5860 5859 5858 5857 5856 5855 5853 5851 5849 5847 5845 5842 5840 5837 5834
5872 5873 5872 5871 5870 5869 5868 5867 5866 5866 5865 5863 5862 5864 5861 5861 5861 5860 5860 5860 5859 5859 5859 5859 5858 5858 5858 5857 5856 5856 5855 5854 5853 5852 5850 5849 5847 5845 5842 5840 5837 5834 5832 5829
5868 5869 5868 5867 5868 5865 5863 5862 5862 5861 5860 5859 5858 5860 5857 5857 5857 5857 5857 5856 5856 5855 5855 5854 5854 5853 5853 5853 5852 5851 5850 5849 5848 5847 5845 5844 5842 5840 5837 5834 5832 5829 5826 5823
5864 5864 5864 5864 5861 5860 5859 5858 5857 5856 5856 5855 5854 5854 5853 5853 5853 5853 5853 5852 5852 5851 5851 5850 5849 5849 5848 5848 5847 5846 5845 5844 5843 5842 5840 5838 5836 5834 5831 5828 5826 5822 5819 5816
5860 5860 5859 5858 5856 5855 5855 5854 5853 5852 5851 5851 5850 5850 5849 5849 5848 5848 5847 5847 5847 5847 5846 5845 5845 5844 5843 5843 5842 5841 5840 5839 5838 5836 5834 5832 5830 5827 5825 5822 5819 5815 5812 5808
5855 5856 5855 5855 5853 5850 5850 5850 5849 5848 5847 5846 5845 5845 5844 5843 5843 5843 5843 5843 5842 5842 5842 5841 5840 5839 5838 5838 5837 5836 5835 5833 5832 5830 5828 5825 5823 5820 5817 5814 5811 5807 5804 5800
5851 5851 5851 5850 5849 5847 5846 5846 5844 5843 5842 5842 5841 5841 5839 5839 5839 5839 5838 5838 5837 5837 5837 5837 5836 5835 5834 5833 5831 5830 5828 5827 5825 5823 5820 5818 5815 5812 5809 5806 5802 5799 5795 5791
5846 5845 5845 5845 5845 5843 5844 5840 5839 5838 5837 5837 5836 5835 5834 5834 5834 5834 5834 5833 5833 5832 5832 5831 5831 5830 5828 5827 5825 5823 5821 5819 5817 5814 5812 5809 5806 5803 5800 5797 5793 5789 5785 5782
5839 5839 5838 5838 5837 5837 5837 5835 5834 5834 5833 5831 5830 5829 5829 5829 5829 5829 5829 5828 5828 5827 5826 5825 5824 5822 5821 5819 5817 5815 5813 5810 5808 5805 5802 5800 5797 5793 5790 5786 5783 5779 5775 5771
5832 5832 5832 5831 5831 5831 5832 5830 5829 5829 5828 5827 5826 5825 5824 5824 5824 5824 5823 5822 5822 5821 5819 5818 5816 5814 5812 5810 5808 5806 5804 5801 5799 5796 5793 5790 5786 5783 5779 5775 5772 5768 5764 5760
5825 5825 5825 5824 5823 5824 5824 5823 5822 5823 5824 5822 5820 5819 5819 5818 5818 5817 5816 5815 5815 5813 5811 5809 5807 5805 5803 5801 5798 5796 5794 5791 5789 5785 5782 5779 5775 5771 5767 5764 5760 5756 5751 5747
5818 5819 5819 5818 5818 5819 5817 5816 5816 5816 5816 5816 5815 5814 5813 5812 5810 5809 5808 5807 5806 5804 5802 5800 5797 5795 5793 5791 5788 5785 5783 5780 5777 5774 5770 5767 5763 5759 5755 5751 5747 5743 5739 5734
5812 5813 5812 5813 5813 5811 5810 5808 5808 5808 5809 5809 5808 5807 5806 5805 5803 5802 5801 5799 5798 5795 5793 5791 5788 5786 5783 5780 5777 5775 5772 5768 5765 5761 5757 5753 5750 5746 5741 5737 5733 5729 5725 5720
5805 5805 5805 5805 5804 5803 5803 5803 5801 5800 5800 5800 5800 5799 5798 5797 5796 5795 5793 5791 5788 5786 5784 5781 5778 5775 5772 5769 5765 5762 5759 5755 5751 5747 5743 5739 5735 5731 5727 5722 5718 5714 5709 5705
5798 5797 5797 5797 5797 5796 5795 5794 5793 5793 5792 5792 5791 5791 5790 5788 5787 5786 5783 5781 5779 5776 5773 5770 5767 5764 5760 5757 5753 5750 5746 5742 5738 5733 5729 5725 5720 5716 5711 5707 5703 5698 5694 5688
5791 5792 5792 5791 5790 5789 5788 5787 5786 5786 5785 5784 5783 5783 5782 5780 5778 5775 5773 5770 5768 5765 5762 5758 5755 5752 5748 5745 5741 5737 5733 5728 5724 5720 5715 5710 5705 5700 5695 5691 5687 5681 5676 5672